COSMOS 2522 (752)

Last updated on July 6, 2021, 3:40 p.m. UTC

1 42939U 17055A   21186.51916806  .00000027  00000-0  00000-0 0  9998
2 42939  64.2248 253.8094 0008587 242.1558 103.6161  2.13101936 29455
UTC
Height (km)
Latitude
Longitude
Inclination
Orbital Period
UTC large
Height (km)
Speed (km/s)
/
Latitude / Longitude
Inclination (degrees)
Orbital Period (minutes)
Azimuth
Elevation
Range (km)
Doppler Factor
iOS Compass Heading
iOS Angle